Flag for Jordan Weather past 2 weeks in Amman, Jordan

Now
75 °F

Clear.


Feels Like: 78 °F
Forecast: 65 / 89 °F
Wind: 7 mph from Northwest

Location: Amman Airport

Current Time: Jul 4, 2015 at 10:38:37 PM

Latest Report: Jul 4, 2015 at 10:00 PM


Visibility: 4 mi

Pressure: 29.98 "Hg (27.29 "Hg at 816m altitude)

Humidity: 50%

Dew point: 55 °F

Location of AmmanLocation

Historic Weather in Amman — Graph

°F

Amman temperature yesterday

Maximum temperature yesterday: 84 °F (at 2:00 PM)
Minimum temperature yesterday: 66 °F (at 6:00 AM)
Average temperature yesterday: 77 °F

Past Weeks' High & Low Weather Summary

 TemperatureHumidityPressure
High95 °F (Jul 2, 2:00 PM)88% (Jun 22, 6:00 AM)30.07 "Hg (Jun 22, 6:00 AM)
Low59 °F (Jun 24, 6:00 AM)14% (Jul 1, 3:00 PM)29.80 "Hg (Jun 28, 1:00 AM)
Average73 °F49%29.93 "Hg
* Reported Jun 19 9:00 PM — Jul 4 9:00 PM, Amman, Weather by CustomWeather, © 2015

Note: Actual official high and low records may vary slightly from our data, if they occured in-between our weather recording intervals... More about our weather records

Advertising

Amman weather history for previous 24 hours

 ConditionsComfort  
Time TempWeatherWind HumidityBarometerVisibility
9:00 PM
Sat, Jul 4
79 °FHaze.9 mph42%29.98 "Hg3 mi
8:00 PM81 °FHaze.9 mph32%29.98 "Hg3 mi
7:00 PM84 °FHaze.9 mph25%29.95 "Hg3 mi
6:00 PM86 °FHaze.12 mph20%29.98 "Hg3 mi
5:00 PM86 °FHaze.14 mph19%29.98 "Hg3 mi
4:00 PM86 °FHaze.12 mph17%29.98 "Hg3 mi
3:00 PM86 °FHaze.12 mph18%30.01 "Hg3 mi
2:00 PM86 °FHaze.12 mph20%29.98 "Hg3 mi
1:00 PM84 °FHaze.9 mph23%29.98 "Hg3 mi
12:00 PM82 °FHaze.8 mph25%30.01 "Hg3 mi
11:00 AM81 °FClear.10 mph28%30.01 "Hg4 mi
10:00 AM79 °FClear.10 mph26%29.98 "Hg4 mi
9:00 AM75 °FClear.3 mph25%29.98 "Hg4 mi
8:00 AM73 °FHaze.6 mph27%29.98 "Hg3 mi
7:00 AM70 °FHaze.6 mph29%29.95 "Hg3 mi
6:00 AM68 °FHaze.3 mph33%29.95 "Hg2 mi
5:00 AM68 °FHaze.3 mph38%29.95 "Hg3 mi
4:00 AM68 °FHaze.3 mph40%29.95 "Hg3 mi
1:00 AM70 °FHaze.5 mph50%29.98 "Hg3 mi
12:00 AM72 °FHaze.9 mph53%29.98 "Hg3 mi
11:00 PM
Fri, Jul 3
73 °FHaze.9 mph47%29.98 "Hg3 mi
10:00 PM73 °FHaze.9 mph47%29.98 "Hg3 mi
Weather by CustomWeather, © 2015

See weather overviewHow to use our weather pages